FW8718 Weather Reports


Display with metric or nautical units.
time (UTC)temp
F
wind
direction
speed
MPH
gust
MPH
rain 1hr
in
rain 24hr
in
rain mn
in
humidity
%
barometer
mb
20260507162012 54 271 1.0 6.0 0.00 0.22 0.00 35 1021.8
20260507161532 54 5 2.0 5.0 0.00 0.22 0.00 39 1021.9
20260507161013 53 303 2.0 8.0 0.00 0.22 0.00 47 1021.7
20260507160513 53 341 1.0 6.0 0.00 0.22 0.00 44 1021.9
20260507160032 52 239 2.0 7.0 0.00 0.22 0.00 43 1021.8
20260507155512 51 280 2.0 7.0 0.00 0.22 0.00 42 1021.9
20260507155010 51 320 1.0 7.0 0.00 0.22 0.00 47 1021.8
20260507154532 51 334 1.0 5.0 0.00 0.22 0.00 44 1021.9
20260507154014 50 201 1.0 10.0 0.00 0.22 0.00 47 1021.9
20260507153512 50 267 3.0 10.0 0.00 0.22 0.00 48 1021.9
20260507153029 49 236 0.0 7.0 0.00 0.22 0.00 50 1021.8
20260507152518 49 249 2.0 7.0 0.00 0.22 0.00 48 1022.0
20260507152015 48 252 2.0 7.0 0.00 0.22 0.00 54 1021.8
20260507151531 48 269 1.0 7.0 0.00 0.22 0.00 53 1021.8
20260507151012 47 273 2.0 8.0 0.00 0.22 0.00 54 1021.8
20260507150513 46 5 2.0 8.0 0.00 0.22 0.00 54 1021.8
20260507150041 46 196 1.0 8.0 0.00 0.22 0.00 58 1021.9
20260507145512 46 302 3.0 8.0 0.00 0.22 0.00 55 1021.8
20260507145013 45 240 2.0 9.0 0.00 0.22 0.00 57 1021.8
20260507144530 45 314 3.0 9.0 0.00 0.22 0.00 57 1022.0
20260507144013 45 333 3.0 8.0 0.00 0.22 0.00 56 1022.0
20260507143511 44 255 2.0 9.0 0.00 0.22 0.00 58 1022.0
20260507143034 44 337 1.0 9.0 0.00 0.22 0.00 59 1021.9
20260507142512 43 232 2.0 10.0 0.00 0.22 0.00 58 1021.8
20260507142013 43 268 1.0 9.0 0.00 0.22 0.00 59 1021.8
20260507141533 43 274 2.0 9.0 0.00 0.22 0.00 59 1022.0
20260507141014 42 281 3.0 9.0 0.00 0.22 0.00 58 1022.0
20260507140514 42 307 0.0 6.0 0.00 0.22 0.00 62 1021.8
20260507140032 42 208 1.0 6.0 0.00 0.22 0.00 60 1021.9
20260507135517 41 348 1.0 4.0 0.00 0.22 0.00 58 1021.8
20260507135017 41 284 0.0 4.0 0.00 0.22 0.00 59 1021.6
20260507134531 40 269 0.0 4.0 0.00 0.22 0.00 59 1021.8
20260507134015 39 271 0.0 7.0 0.00 0.22 0.00 61 1021.6
20260507133512 39 322 0.0 7.0 0.00 0.22 0.00 62 1021.8
20260507133030 38 287 0.0 4.0 0.00 0.22 0.00 61 1021.6
20260507132514 37 292 0.0 2.0 0.00 0.22 0.00 63 1021.8
20260507132011 36 292 0.0 2.0 0.00 0.22 0.00 63 1021.8
20260507131536 35 285 0.0 2.0 0.00 0.22 0.00 67 1021.8
20260507131011 34 285 0.0 3.0 0.00 0.22 0.00 68 1021.8
20260507130515 33 283 0.0 3.0 0.00 0.22 0.00 70 1021.9
20260507130031 32 290 0.0 2.0 0.00 0.22 0.00 70 1021.9
20260507125512 32 304 0.0 2.0 0.00 0.22 0.00 72 1021.8
20260507125014 31 304 0.0 2.0 0.00 0.22 0.00 71 1021.6
20260507124531 31 304 0.0 1.0 0.00 0.22 0.00 73 1021.6
20260507124016 30 190 0.0 4.0 0.00 0.22 0.00 74 1021.5
20260507123511 30 284 0.0 4.0 0.00 0.22 0.00 74 1021.5
20260507123035 29 283 0.0 4.0 0.00 0.22 0.00 75 1021.4
20260507122511 28 283 0.0 4.0 0.00 0.22 0.00 75 1021.5
20260507122014 28 286 0.0 2.0 0.00 0.22 0.00 77 1021.3
20260507121535 28 294 0.0 0.0 0.00 0.22 0.00 78 1021.5
20260507121013 28 294 0.0 0.0 0.00 0.22 0.00 78 1021.3
20260507120514 28 294 0.0 0.0 0.00 0.22 0.00 76 1021.3
20260507120041 29 294 0.0 1.0 0.00 0.22 0.00 76 1021.3
20260507115514 29 294 0.0 1.0 0.00 0.22 0.00 75 1021.3
20260507115012 29 294 0.0 1.0 0.00 0.22 0.00 75 1021.4
20260507114532 29 294 0.0 2.0 0.00 0.22 0.00 76 1021.4
20260507114013 29 294 0.0 2.0 0.00 0.22 0.00 75 1021.5
20260507113513 28 294 0.0 3.0 0.00 0.22 0.00 75 1021.3
20260507113034 28 294 0.0 3.0 0.00 0.22 0.00 75 1021.4
20260507112513 28 151 0.0 0.0 0.00 0.22 0.00 77 1021.3
20260507112014 27 151 0.0 1.0 0.00 0.22 0.00 77 1021.3
20260507111535 27 151 0.0 1.0 0.00 0.22 0.00 78 1021.4
20260507111013 27 151 0.0 0.0 0.00 0.22 0.00 79 1021.4
20260507110512 27 151 0.0 0.0 0.00 0.22 0.00 79 1021.4
20260507110036 27 151 0.0 0.0 0.00 0.22 0.00 80 1021.3
20260507105515 27 151 0.0 0.0 0.00 0.22 0.00 80 1021.3
20260507105012 27 151 0.0 0.0 0.00 0.22 0.00 80 1021.3
20260507104536 27 151 0.0 1.0 0.00 0.22 0.00 80 1021.2
20260507104014 27 151 0.0 1.0 0.00 0.22 0.00 82 1021.3
20260507103515 26 151 0.0 2.0 0.00 0.22 0.00 84 1021.1
20260507103034 25 151 0.0 2.0 0.00 0.22 0.00 86 1021.3
20260507102517 25 151 0.0 1.0 0.00 0.22 0.00 87 1021.4
20260507102014 25 151 0.0 0.0 0.00 0.22 0.00 88 1021.5
20260507101538 24 151 0.0 0.0 0.00 0.22 0.00 88 1021.6
20260507101011 24 151 0.0 0.0 0.00 0.22 0.00 89 1021.7
20260507100511 24 151 0.0 0.0 0.00 0.22 0.00 89 1021.7
20260507100040 24 151 0.0 0.0 0.00 0.22 0.00 89 1021.7
20260507095515 24 151 0.0 0.0 0.00 0.22 0.00 89 1021.7
20260507095013 24 151 0.0 2.0 0.00 0.22 0.00 90 1021.6
20260507094533 24 151 0.0 2.0 0.00 0.22 0.00 90 1021.6
20260507094012 24 151 0.0 0.0 0.00 0.22 0.00 90 1021.4
20260507093512 24 151 0.0 0.0 0.00 0.22 0.00 90 1021.5
20260507093035 24 151 0.0 0.0 0.00 0.22 0.00 91 1021.6
20260507092515 24 151 0.0 1.0 0.00 0.22 0.00 91 1021.5
20260507092012 24 151 0.0 1.0 0.00 0.22 0.00 91 1021.6
20260507091534 24 151 0.0 0.0 0.00 0.22 0.00 91 1021.7
20260507091014 24 151 0.0 2.0 0.00 0.22 0.00 92 1021.8
20260507090515 24 151 0.0 2.0 0.00 0.22 0.00 92 1021.8
20260507090036 24 151 0.0 2.0 0.00 0.22 0.00 92 1021.8
20260507085511 24 151 0.0 0.0 0.00 0.22 0.00 92 1021.9
20260507085012 24 151 0.0 0.0 0.00 0.22 0.00 92 1021.9
20260507084534 24 151 0.0 0.0 0.00 0.22 0.00 93 1022.0
20260507084012 24 151 0.0 2.0 0.00 0.22 0.00 93 1021.8
20260507083514 24 151 0.0 2.0 0.00 0.22 0.00 93 1022.0
20260507083030 23 151 0.0 1.0 0.00 0.22 0.00 93 1021.9
20260507082514 23 151 0.0 1.0 0.00 0.22 0.00 92 1022.1
20260507082016 23 151 0.0 0.0 0.00 0.22 0.00 93 1022.0
20260507081543 23 151 0.0 0.0 0.00 0.22 0.00 93 1022.1
20260507081015 23 151 0.0 0.0 0.00 0.22 0.00 93 1022.2
20260507080516 24 151 0.0 0.0 0.00 0.22 0.00 93 1022.3
20260507080034 24 151 0.0 0.0 0.00 0.22 0.00 93 1022.3
20260507075519 24 151 0.0 0.0 0.00 0.22 0.00 93 1022.2
20260507075011 23 151 0.0 0.0 0.00 0.22 0.00 93 1022.3
20260507074550 23 151 0.0 0.0 0.00 0.22 0.00 93 1022.1
20260507074014 23 151 0.0 0.0 0.00 0.22 0.00 93 1022.3
20260507073516 23 151 0.0 0.0 0.00 0.22 0.00 93 1022.4
20260507073031 23 151 0.0 1.0 0.00 0.22 0.00 92 1022.3
20260507072518 23 151 0.0 1.0 0.00 0.22 0.00 92 1022.3
20260507072012 23 151 0.0 0.0 0.00 0.22 0.00 92 1022.3
20260507071534 23 151 0.0 1.0 0.00 0.22 0.00 92 1022.3
20260507071014 23 151 0.0 1.0 0.00 0.22 0.00 92 1022.3
20260507070519 24 151 0.0 0.0 0.00 0.22 0.00 92 1022.4
20260507070035 24 151 0.0 0.0 0.00 0.22 0.00 92 1022.4
20260507065512 24 151 0.0 0.0 0.00 0.22 0.00 92 1022.3
20260507065011 24 151 0.0 0.0 0.00 0.22 0.00 92 1022.2
20260507064531 24 151 0.0 0.0 0.00 0.22 0.00 92 1022.3
20260507064013 24 151 0.0 0.0 0.00 0.22 0.00 92 1022.3
20260507063515 25 151 0.0 0.0 0.00 0.22 0.00 92 1022.3
20260507063032 25 151 0.0 1.0 0.00 0.22 0.00 92 1022.2
20260507062514 25 151 0.0 1.0 0.00 0.22 0.00 92 1022.1
20260507062014 25 151 0.0 0.0 0.00 0.22 0.00 92 1022.2
20260507061536 26 151 0.0 0.0 0.00 0.22 0.00 92 1022.1
20260507061012 26 151 0.0 0.0 0.00 0.22 0.00 92 1022.1
20260507060512 26 151 0.0 0.0 0.00 0.22 0.00 92 1022.2
20260507060036 27 151 0.0 0.0 0.00 0.22 0.00 93 1022.2
20260507055513 27 151 0.0 0.0 0.00 0.22 0.22 93 1022.0
20260507055014 27 151 0.0 0.0 0.00 0.22 0.22 93 1022.0
20260507054538 27 151 0.0 0.0 0.00 0.22 0.22 93 1021.9
20260507054012 27 151 0.0 0.0 0.00 0.22 0.22 93 1021.8
20260507053513 27 151 0.0 0.0 0.00 0.22 0.22 93 1021.9
20260507053035 27 151 0.0 0.0 0.00 0.22 0.22 93 1022.0
20260507052514 28 151 0.0 1.0 0.00 0.22 0.22 93 1021.9
20260507052014 28 151 0.0 2.0 0.00 0.22 0.22 93 1021.9
20260507051532 28 151 0.0 3.0 0.00 0.22 0.22 92 1021.9
20260507051022 28 148 1.0 3.0 0.00 0.22 0.22 92 1021.7
20260507050513 28 138 0.0 3.0 0.00 0.22 0.22 93 1021.8
20260507050033 28 169 0.0 1.0 0.00 0.22 0.22 93 1021.8
20260507045513 28 169 0.0 3.0 0.00 0.22 0.22 93 1021.8
20260507045014 28 169 1.0 3.0 0.00 0.22 0.22 92 1021.8
20260507044539 28 168 0.0 5.0 0.00 0.22 0.22 92 1021.9
20260507044015 28 192 1.0 5.0 0.00 0.22 0.22 92 1021.8
20260507043512 28 197 1.0 4.0 0.00 0.22 0.22 92 1021.7
20260507043035 28 178 1.0 3.0 0.00 0.22 0.22 92 1021.8
20260507042515 27 169 0.0 6.0 0.00 0.22 0.22 92 1021.8
20260507042012 27 166 1.0 6.0 0.00 0.22 0.22 92 1022.0
20260507041534 27 179 0.0 0.0 0.00 0.22 0.22 91 1022.0
20260507041013 27 179 0.0 0.0 0.00 0.22 0.22 91 1022.0
20260507040513 27 179 0.0 0.0 0.00 0.22 0.22 91 1022.0
20260507040039 27 179 0.0 0.0 0.00 0.22 0.22 91 1022.0
20260507035513 27 184 0.0 0.0 0.00 0.22 0.22 91 1021.9
20260507035014 27 176 0.0 1.0 0.00 0.22 0.22 91 1022.0
20260507034533 27 176 0.0 1.0 0.00 0.22 0.22 91 1022.0
20260507034012 27 176 0.0 2.0 0.00 0.22 0.22 90 1022.0
20260507033514 27 176 0.0 2.0 0.00 0.22 0.22 90 1021.9
20260507033034 27 171 0.0 1.0 0.00 0.22 0.22 90 1021.8
20260507032512 28 171 0.0 2.0 0.00 0.22 0.22 90 1021.9
20260507032018 28 171 0.0 2.0 0.00 0.22 0.22 90 1021.7
20260507031539 28 171 0.0 2.0 0.00 0.22 0.22 90 1021.7
20260507031015 28 171 0.0 3.0 0.00 0.22 0.22 89 1021.5
20260507030512 28 171 0.0 3.0 0.00 0.22 0.22 89 1021.5
20260507030049 28 219 0.0 3.0 0.00 0.22 0.22 89 1021.4
20260507025516 28 219 0.0 3.0 0.00 0.22 0.22 89 1021.4
20260507025012 29 229 0.0 2.0 0.00 0.22 0.22 88 1021.4
20260507024541 29 229 0.0 5.0 0.00 0.22 0.22 88 1021.4
20260507024016 29 230 2.0 5.0 0.00 0.22 0.22 88 1021.4
20260507023514 29 218 1.0 4.0 0.00 0.22 0.22 88 1021.3
20260507023036 29 213 0.0 3.0 0.00 0.22 0.22 87 1021.3
20260507022513 29 213 0.0 2.0 0.00 0.22 0.22 87 1021.2
20260507022013 30 215 0.0 2.0 0.00 0.22 0.22 87 1021.1
20260507021536 30 216 0.0 3.0 0.00 0.22 0.22 86 1021.0
20260507021013 30 206 1.0 5.0 0.00 0.22 0.22 86 1021.0
20260507020516 30 251 0.0 5.0 0.00 0.22 0.22 86 1021.0
20260507020035 31 171 0.0 4.0 0.00 0.22 0.22 85 1020.9
20260507015512 31 188 0.0 4.0 0.00 0.22 0.22 85 1020.8
20260507015015 31 225 1.0 5.0 0.00 0.22 0.22 84 1020.7
20260507014545 32 207 0.0 5.0 0.00 0.22 0.22 84 1020.8
20260507014013 32 223 0.0 4.0 0.00 0.22 0.22 84 1020.8
20260507013513 32 211 0.0 6.0 0.00 0.22 0.22 83 1020.7
20260507013035 33 223 0.0 6.0 0.00 0.22 0.22 82 1020.7
20260507012513 33 234 0.0 7.0 0.00 0.22 0.22 81 1020.9
20260507012017 34 234 3.0 7.0 0.00 0.22 0.22 80 1020.7
20260507011535 34 214 1.0 6.0 0.00 0.22 0.22 79 1020.8
20260507011013 35 225 1.0 7.0 0.00 0.22 0.22 79 1020.8
20260507010512 36 166 4.0 7.0 0.01 0.22 0.22 78 1020.6
20260507010038 36 240 2.0 8.0 0.01 0.22 0.22 79 1020.5
20260507005515 36 229 2.0 7.0 0.01 0.22 0.22 79 1020.5
20260507005017 36 229 2.0 9.0 0.01 0.22 0.22 78 1020.3
20260507004533 36 216 3.0 9.0 0.01 0.22 0.22 78 1020.4
20260507004020 36 136 1.0 8.0 0.01 0.22 0.22 77 1020.3
20260507003513 36 210 2.0 8.0 0.01 0.22 0.22 77 1020.4
20260507003038 36 163 3.0 6.0 0.01 0.22 0.22 77 1020.3
20260507002512 36 228 2.0 10.0 0.01 0.22 0.22 77 1020.3
20260507002014 36 180 3.0 10.0 0.01 0.22 0.22 77 1020.3
20260507001535 36 222 0.0 7.0 0.01 0.22 0.22 79 1020.4
20260507001017 36 242 3.0 8.0 0.01 0.22 0.22 77 1020.5
20260507000512 36 227 1.0 8.0 0.00 0.21 0.21 78 1020.4
20260507000042 36 305 2.0 6.0 0.00 0.21 0.21 79 1020.3
20260506235513 36 278 1.0 8.0 0.00 0.22 0.21 79 1020.3
20260506235015 36 215 2.0 8.0 0.00 0.22 0.21 77 1020.3
20260506234539 36 265 0.0 6.0 0.00 0.22 0.21 76 1020.5
20260506234014 37 204 3.0 8.0 0.00 0.22 0.21 76 1020.6
20260506233514 37 236 2.0 7.0 0.00 0.22 0.21 76 1020.4
20260506233039 37 157 3.0 8.0 0.00 0.22 0.21 78 1020.6
20260506232514 36 224 3.0 6.0 0.00 0.22 0.21 80 1020.5
20260506232016 35 221 0.0 5.0 0.00 0.22 0.21 80 1020.4
20260506231535 34 191 2.0 6.0 0.00 0.22 0.21 78 1020.3
20260506231012 34 214 2.0 5.0 0.00 0.22 0.21 79 1020.3
20260506230515 34 277 0.0 4.0 0.00 0.22 0.21 78 1020.3
20260506230034 34 280 1.0 4.0 0.00 0.22 0.21 78 1020.2
20260506225515 34 280 1.0 3.0 0.00 0.25 0.21 79 1020.3
20260506225012 34 288 0.0 3.0 0.00 0.25 0.21 78 1020.4
20260506224538 34 288 0.0 4.0 0.00 0.25 0.21 76 1020.4
20260506224015 34 294 1.0 5.0 0.00 0.25 0.21 78 1020.5
20260506223515 34 15 1.0 4.0 0.00 0.25 0.21 81 1020.5
20260506223032 34 59 1.0 5.0 0.00 0.25 0.21 79 1020.4
20260506222512 34 5 0.0 4.0 0.00 0.25 0.21 83 1020.4
20260506222013 33 15 1.0 3.0 0.00 0.25 0.21 85 1020.4
20260506221539 33 28 0.0 4.0 0.01 0.25 0.21 83 1020.5
20260506221019 33 311 1.0 6.0 0.01 0.25 0.21 83 1020.5
20260506220515 33 5 2.0 7.0 0.01 0.25 0.21 84 1020.6
20260506220038 33 304 2.0 6.0 0.01 0.25 0.21 84 1020.6
20260506215516 33 15 1.0 5.0 0.01 0.26 0.21 83 1020.7
20260506215016 33 347 1.0 8.0 0.01 0.26 0.21 84 1020.7
20260506214536 33 75 3.0 5.0 0.01 0.26 0.21 85 1020.6
20260506214016 33 9 1.0 8.0 0.02 0.26 0.21 85 1020.5
20260506213515 33 17 3.0 10.0 0.02 0.26 0.21 85 1020.6
20260506213040 33 76 5.0 10.0 0.02 0.26 0.21 85 1020.4
20260506212515 33 336 1.0 5.0 0.02 0.26 0.21 88 1020.5
20260506212016 32 347 2.0 7.0 0.02 0.26 0.21 88 1020.7
20260506211538 31 52 2.0 10.0 0.02 0.25 0.19 86 1020.8
20260506211015 31 306 3.0 10.0 0.03 0.25 0.19 85 1020.9
20260506210520 31 56 4.0 10.0 0.03 0.25 0.19 85 1020.9
20260506210049 31 57 3.0 10.0 0.03 0.25 0.19 87 1020.8
20260506205513 31 38 3.0 9.0 0.03 0.25 0.19 86 1020.8
20260506205016 31 50 3.0 9.0 0.03 0.25 0.19 86 1020.7
20260506204543 31 55 3.0 9.0 0.04 0.25 0.19 85 1020.7
20260506204013 32 85 2.0 9.0 0.03 0.24 0.19 85 1020.8
20260506203518 32 360 2.0 9.0 0.03 0.24 0.19 86 1020.9
20260506203041 32 53 2.0 8.0 0.03 0.24 0.19 86 1020.9
20260506202515 33 11 3.0 8.0 0.03 0.24 0.19 86 1020.8
20260506202017 32 309 3.0 6.0 0.04 0.24 0.19 86 1020.7
20260506201544 32 11 3.0 9.0 0.03 0.22 0.18 87 1020.8
20260506201013 31 78 2.0 9.0 0.02 0.22 0.17 87 1021.0
20260506200512 31 40 1.0 6.0 0.03 0.22 0.17 88 1020.9
20260506200030 30 55 2.0 7.0 0.03 0.22 0.17 88 1020.9
20260506195510 30 78 1.0 10.0 0.03 0.24 0.17 87 1020.9
20260506195010 30 17 3.0 10.0 0.04 0.24 0.17 87 1020.9
20260506194526 30 34 2.0 10.0 0.03 0.22 0.16 87 1020.9
20260506194010 30 45 3.0 10.0 0.04 0.22 0.16 86 1020.8
20260506193511 31 39 2.0 8.0 0.04 0.22 0.16 86 1020.6
20260506193031 31 269 2.0 8.0 0.04 0.22 0.16 85 1020.6
20260506192514 31 15 2.0 10.0 0.04 0.22 0.16 86 1020.5
20260506192013 31 5 2.0 10.0 0.04 0.22 0.14 85 1020.3
20260506191528 31 355 3.0 9.0 0.04 0.22 0.14 86 1020.6
20260506191010 31 68 3.0 9.0 0.06 0.22 0.14 86 1020.6
20260506190513 31 351 2.0 11.0 0.04 0.21 0.14 85 1020.6
20260506190030 31 338 3.0 11.0 0.06 0.21 0.14 86 1020.5
20260506185509 31 33 2.0 11.0 0.06 0.25 0.14 85 1020.6
20260506185009 32 68 4.0 11.0 0.06 0.24 0.13 85 1020.6
20260506184527 32 66 1.0 9.0 0.06 0.24 0.13 86 1020.6
20260506184011 32 17 3.0 9.0 0.06 0.22 0.12 86 1020.5
20260506183513 32 47 1.0 6.0 0.06 0.22 0.12 86 1020.6
20260506183028 31 284 1.0 6.0 0.09 0.22 0.11 86 1020.6
20260506182511 31 5 2.0 6.0 0.09 0.22 0.11 86 1020.8
20260506182014 31 281 3.0 6.0 0.09 0.21 0.09 87 1020.7
20260506181530 30 35 2.0 9.0 0.09 0.21 0.09 86 1021.0
20260506181015 31 19 3.0 9.0 0.09 0.19 0.09 86 1021.0
20260506180515 30 40 3.0 9.0 0.09 0.19 0.09 86 1021.1
20260506180034 30 202 2.0 7.0 0.08 0.19 0.08 88 1021.1
20260506175512 30 63 2.0 5.0 0.08 0.19 0.08 88 1020.8
20260506175012 30 347 2.0 7.0 0.07 0.19 0.07 88 1020.7
20260506174528 30 5 2.0 7.0 0.07 0.19 0.07 89 1020.6
20260506174010 30 70 2.0 6.0 0.06 0.18 0.06 89 1020.7
20260506173512 30 54 2.0 6.0 0.06 0.18 0.06 89 1020.7
20260506173028 30 13 2.0 6.0 0.01 0.13 0.01 89 1020.9
20260506172511 30 30 0.0 6.0 0.01 0.13 0.01 90 1020.7
20260506172013 29 56 0.0 4.0 0.01 0.13 0.01 90 1020.6
20260506171532 29 61 1.0 4.0 0.00 0.12 0.00 90 1020.1
20260506171010 28 57 0.0 4.0 0.00 0.12 0.00 90 1019.9
20260506170511 28 5 1.0 5.0 0.00 0.12 0.00 90 1020.1
20260506170028 28 9 1.0 5.0 0.00 0.12 0.00 91 1020.2
20260506165513 28 52 0.0 5.0 0.00 0.13 0.00 91 1020.2
20260506165012 28 30 0.0 4.0 0.00 0.13 0.00 91 1020.3
20260506164529 28 360 1.0 4.0 0.00 0.13 0.00 91 1020.3
20260506164012 28 19 0.0 4.0 0.00 0.13 0.00 91 1020.3
20260506163509 28 30 0.0 4.0 0.00 0.13 0.00 91 1020.2
20260506163050 28 350 0.0 4.0 0.00 0.13 0.00 91 1020.2
20260506162514 27 355 0.0 5.0 0.00 0.13 0.00 91 1020.0